Snowfall_Accumulation
0.0 0.0 0.0 0.0 0.0 0.0 0.0 0.0 0.0 nan nan nan nan nan nan nan nan nan nan nan nan nan nan nan nan nan nan
0.0 0.0 0.0 0.0 0.0 0.0 0.0 0.0 0.0 nan nan nan nan nan nan nan nan nan nan nan nan nan nan nan nan nan nan
0.1 0.0 0.0 0.0 0.0 0.0 0.0 0.0 0.0 nan nan nan nan nan nan nan nan nan nan nan nan nan nan nan nan nan nan
0.1 0.1 0.0 0.0 0.0 0.0 0.0 0.0 0.0 0.0 nan nan nan nan nan nan nan nan nan nan nan nan nan nan nan nan nan
0.2 0.1 0.2 0.2 0.1 0.0 0.0 0.0 0.0 0.0 0.0 0.0 0.0 0.0 0.0 nan nan nan nan nan nan nan nan nan nan nan nan
0.4 0.4 0.1 0.1 0.1 0.1 0.0 0.1 0.2 0.0 0.0 0.0 0.0 0.0 0.0 0.0 nan nan nan nan nan nan nan nan nan nan nan
0.7 0.3 0.4 0.1 0.0 0.0 0.0 0.0 0.0 0.0 0.0 0.0 0.0 0.0 0.0 0.0 nan nan nan nan nan nan nan nan nan nan nan
0.0 0.0 0.0 0.0 0.0 0.0 0.0 0.0 0.0 0.0 0.0 0.1 0.0 0.0 0.0 0.0 nan nan nan nan nan nan nan nan nan nan nan
nan nan nan nan nan 0.9 2.4 1.9 0.7 0.0 0.0 0.2 0.1 0.1 0.0 0.0 0.0 nan nan nan nan nan nan nan nan nan 0.0
0.0 0.0 nan nan nan 0.0 0.1 1.1 0.6 0.4 0.0 0.2 0.1 0.2 0.6 0.0 0.0 0.0 0.0 nan nan nan nan nan nan 0.0 0.0
1.8 1.2 0.3 0.2 0.1 0.0 0.0 0.0 0.3 0.3 0.0 0.2 0.4 0.4 0.6 0.5 0.1 0.0 0.0 0.0 0.0 0.0 nan nan nan 0.0 0.0
1.0 0.7 0.6 0.4 0.2 0.1 0.0 0.0 0.0 0.1 0.0 0.0 3.9 0.5 0.9 1.4 0.6 0.2 0.0 0.0 0.0 0.0 0.0 nan nan nan nan
0.5 0.4 0.3 0.2 0.1 0.2 0.1 0.2 0.2 0.1 0.0 0.0 0.8 0.3 1.0 1.6 1.3 0.5 0.4 0.2 0.1 0.2 0.1 0.0 0.0 0.0 0.0
0.3 0.2 0.3 0.4 0.5 0.4 0.8 0.7 1.3 1.1 0.1 0.0 0.1 0.1 1.1 0.6 0.8 1.2 0.4 1.7 0.3 0.2 0.2 0.1 0.0 0.0 0.0
0.4 0.6 0.6 0.6 0.8 0.6 1.0 1.3 2.5 1.7 2.0 1.4 0.1 0.1 0.3 0.2 3.2 0.9 1.1 1.3 0.4 0.5 0.7 0.9 0.5 0.4 0.3
0.6 0.6 0.9 1.1 1.4 1.9 1.7 1.8 2.5 1.7 2.0 2.0 2.1 3.4 2.7 1.5 1.1 1.7 1.1 1.5 1.2 0.8 0.6 1.6 1.1 0.6 0.5
0.8 0.8 0.9 1.4 1.7 3.1 2.6 2.3 2.7 2.0 1.8 2.3 3.7 4.6 7.6 3.9 1.2 nan 2.4 1.3 1.1 2.1 1.2 2.0 2.5 0.9 0.4
Water_Equivalent
0.00 0.00 0.00 0.00 0.00 0.00 0.00 0.00 0.00 nan nan nan nan nan nan nan nan nan nan nan nan nan nan nan nan nan nan
0.00 0.00 0.00 0.00 0.00 0.00 0.00 0.00 0.00 nan nan nan nan nan nan nan nan nan nan nan nan nan nan nan nan nan nan
0.01 0.00 0.00 0.00 0.00 0.00 0.00 0.00 0.00 nan nan nan nan nan nan nan nan nan nan nan nan nan nan nan nan nan nan
0.01 0.01 0.00 0.00 0.00 0.00 0.00 0.00 0.00 0.00 nan nan nan nan nan nan nan nan nan nan nan nan nan nan nan nan nan
0.03 0.02 0.02 0.02 0.01 0.00 0.00 0.00 0.00 0.00 0.00 0.00 0.00 0.00 0.00 nan nan nan nan nan nan nan nan nan nan nan nan
0.04 0.05 0.02 0.02 0.01 0.01 0.00 0.01 0.02 0.00 0.00 0.00 0.00 0.00 0.00 0.00 nan nan nan nan nan nan nan nan nan nan nan
0.09 0.04 0.06 0.02 0.00 0.00 0.00 0.00 0.00 0.00 0.00 0.01 0.00 0.01 0.00 0.00 nan nan nan nan nan nan nan nan nan nan nan
0.00 0.00 0.00 0.00 0.00 0.00 0.00 0.00 0.00 0.00 0.00 0.02 0.00 0.01 0.00 0.00 nan nan nan nan nan nan nan nan nan nan nan
nan nan nan nan nan 0.16 0.31 0.23 0.09 0.00 0.00 0.02 0.01 0.01 0.00 0.00 0.00 nan nan nan nan nan nan nan nan nan 0.00
0.00 0.00 nan nan nan 0.00 0.02 0.17 0.12 0.10 0.00 0.07 0.05 0.07 0.18 0.00 0.00 0.00 0.00 nan nan nan nan nan nan 0.00 0.00
0.23 0.16 0.05 0.03 0.01 0.00 0.00 0.01 0.09 0.09 0.00 0.06 0.16 0.14 0.23 0.16 0.04 0.00 0.00 0.01 0.00 0.00 nan nan nan 0.00 0.00
0.18 0.14 0.12 0.09 0.06 0.03 0.00 0.01 0.01 0.02 0.00 0.00 1.52 0.18 0.31 0.43 0.21 0.07 0.01 0.00 0.00 0.01 0.00 nan nan nan nan
0.14 0.13 0.10 0.08 0.04 0.07 0.02 0.03 0.05 0.02 0.00 0.00 0.24 0.06 0.25 0.44 0.40 0.19 0.16 0.08 0.02 0.07 0.02 0.01 0.01 0.00 0.01
0.11 0.09 0.11 0.17 0.17 0.15 0.30 0.26 0.46 0.41 0.03 0.02 0.02 0.02 0.34 0.18 0.25 0.37 0.15 0.54 0.11 0.08 0.08 0.04 0.01 0.01 0.01
0.14 0.16 0.17 0.20 0.26 0.23 0.38 0.48 0.73 0.52 0.59 0.49 0.03 0.02 0.13 0.08 0.99 0.30 0.38 0.43 0.14 0.19 0.23 0.24 0.17 0.12 0.10
0.18 0.19 0.27 0.32 0.43 0.62 0.59 0.55 0.65 0.46 0.54 0.63 0.67 0.96 0.93 0.52 0.42 0.54 0.36 0.47 0.39 0.27 0.22 0.41 0.29 0.20 0.16
0.25 0.26 0.30 0.45 0.55 0.87 0.74 0.61 0.65 0.52 0.49 0.70 1.02 1.16 1.58 0.79 0.34 nan 0.73 0.46 0.39 0.63 0.37 0.53 0.62 0.26 0.11
SL_Ratio
nan nan nan nan nan nan nan nan nan nan nan nan nan nan nan nan nan nan nan nan nan nan nan nan nan nan nan
6.7 nan nan nan nan nan nan nan nan nan nan nan nan nan nan nan nan nan nan nan nan nan nan nan nan nan nan
7.9 nan nan nan nan nan nan nan nan nan nan nan nan nan nan nan nan nan nan nan nan nan nan nan nan nan nan
8.5 7.9 8.3 nan nan nan 5.0 nan nan nan nan nan nan nan nan nan nan nan nan nan nan nan nan nan nan nan nan
8.3 7.6 7.6 7.6 7.6 6.7 5.0 nan nan nan nan nan nan nan nan nan nan nan nan nan nan nan nan nan nan nan nan
8.1 8.2 7.7 7.1 6.7 7.3 6.0 7.1 7.9 nan nan 2.5 nan nan nan nan nan nan nan nan nan nan nan nan nan nan nan
7.0 7.1 6.9 6.3 5.0 5.0 7.5 6.7 nan nan nan 2.6 0.0 2.4 nan nan nan nan nan nan nan nan nan nan nan nan nan
10.0 nan nan nan nan nan nan nan nan nan nan 4.6 nan 2.7 nan nan nan nan nan nan nan nan nan nan nan nan nan
nan nan nan nan nan 5.9 7.8 8.0 7.8 7.0 5.0 7.1 7.1 6.7 5.0 nan nan nan nan nan nan nan nan nan nan nan nan
6.3 nan nan nan nan 5.8 6.5 6.3 4.8 3.8 2.5 2.9 2.5 2.5 3.1 nan 2.5 nan nan nan nan nan nan nan nan nan nan
7.5 7.3 6.9 6.8 6.9 5.0 nan 4.4 3.4 2.9 2.5 2.5 2.6 2.6 2.7 2.8 2.5 2.5 nan 3.1 5.0 nan nan nan nan nan nan
5.7 5.1 4.5 3.9 3.1 3.1 6.4 6.3 3.4 3.7 nan nan 2.6 2.9 2.8 3.2 3.0 2.5 2.5 5.0 4.0 4.1 5.0 nan nan nan nan
3.6 2.9 2.6 2.6 2.9 3.2 5.0 4.6 5.1 4.5 nan 3.3 3.3 5.1 4.2 3.6 3.3 2.7 2.7 2.5 2.7 3.0 3.4 4.4 4.0 nan 5.0
2.9 2.7 2.6 2.6 2.7 2.7 2.7 2.7 2.8 2.8 3.5 2.8 3.8 5.0 3.1 3.1 3.0 3.1 2.6 3.1 2.5 2.5 2.6 3.0 3.8 4.4 4.0
3.1 3.4 3.3 3.0 3.2 2.7 2.7 2.8 3.5 3.4 3.4 2.9 3.1 2.9 2.7 3.3 3.3 2.9 2.8 2.9 2.6 2.6 3.0 3.5 2.9 3.0 3.0
3.1 3.2 3.3 3.2 3.3 3.1 2.9 3.4 3.8 3.6 3.7 3.2 3.1 3.6 2.9 2.9 2.7 3.1 3.1 3.2 3.0 3.0 2.9 3.8 3.8 3.0 2.8
3.2 3.1 3.0 3.2 3.1 3.6 3.6 3.8 4.2 3.8 3.6 3.3 3.6 4.0 4.8 5.0 3.5 nan 3.3 2.9 2.8 3.3 3.3 3.7 4.1 3.5 3.3